N3EYQ Weather Reports


Display with metric or nautical units.
time (UTC)temp
F
wind
direction
speed
MPH
gust
MPH
rain 1hr
in
rain 24hr
in
rain mn
in
humidity
%
barometer
mb
20260502122948 48 0 0.0 0.0 0.00 0.00 0.00 85 1012.7
20260502121947 48 0 0.0 0.0 0.00 0.00 0.00 86 1012.7
20260502120947 48 0 0.0 0.0 0.00 0.00 0.00 85 1012.7
20260502114948 48 0 0.0 0.0 0.00 0.00 0.00 86 1012.7
20260502113947 48 0 0.0 0.0 0.00 0.00 0.00 85 1012.3
20260502112947 48 0 0.0 0.0 0.00 0.00 0.00 85 1012.7
20260502111947 47 0 0.0 0.0 0.00 0.00 0.00 85 1012.3
20260502110947 47 0 0.0 0.0 0.00 0.00 0.00 85 1012.3
20260502105946 47 0 0.0 0.0 0.00 0.00 0.00 85 1012.3
20260502104946 47 0 0.0 0.0 0.00 0.00 0.00 85 1012.3
20260502103946 47 0 0.0 0.0 0.00 0.00 0.00 85 1012.3
20260502102947 47 0 0.0 0.0 0.00 0.00 0.00 85 1012.0
20260502101946 46 0 0.0 0.0 0.00 0.00 0.00 85 1012.0
20260502100946 46 0 0.0 0.0 0.00 0.00 0.00 85 1012.0
20260502090945 47 0 0.0 0.0 0.00 0.00 0.00 84 1011.6
20260502070944 47 0 0.0 0.0 0.00 0.00 0.00 82 1012.3
20260502065943 48 0 0.0 0.0 0.00 0.00 0.00 82 1012.7
20260502064943 48 0 0.0 0.0 0.00 0.00 0.00 82 1012.7
20260502063943 47 0 0.0 0.0 0.00 0.00 0.00 82 1012.7
20260502062944 48 0 0.0 0.0 0.00 0.00 0.00 84 1012.3
20260502061943 48 0 0.0 0.0 0.00 0.00 0.00 81 1012.7
20260502060943 48 0 0.0 0.0 0.00 0.00 0.00 81 1012.3
20260502055942 48 0 0.0 0.0 0.00 0.00 0.00 81 1012.3
20260502054942 48 0 0.0 0.0 0.00 0.00 0.00 83 1012.3
20260502053943 48 0 0.0 0.0 0.00 0.00 0.00 81 1012.7
20260502052943 48 0 0.0 0.0 0.00 0.00 0.00 80 1012.3
20260502051942 48 0 0.0 0.0 0.00 0.00 0.00 80 1012.7
20260502050942 48 0 0.0 0.0 0.00 0.00 0.00 80 1012.3
20260502045942 48 0 0.0 0.0 0.00 0.00 0.00 78 1012.7
20260502044943 48 0 0.0 0.0 0.00 0.00 0.00 78 1012.7
20260502043941 48 0 0.0 0.0 0.00 0.00 0.00 78 1012.3
20260502042941 48 0 0.0 0.0 0.00 0.00 0.00 77 1012.3
20260502041942 49 0 0.0 0.0 0.00 0.00 0.00 75 1012.3
20260502040941 48 0 0.0 0.0 0.00 0.00 0.00 76 1012.0
20260502035942 49 0 0.0 0.0 0.00 0.00 0.00 74 1012.3
20260502034941 49 0 0.0 0.0 0.00 0.00 0.00 73 1012.3
20260502033940 49 0 0.0 0.0 0.00 0.00 0.00 72 1012.3
20260502032941 49 0 0.0 0.0 0.00 0.00 0.00 70 1012.3
20260502031940 50 0 0.0 0.0 0.00 0.00 0.00 69 1012.0
20260502030940 50 0 0.0 0.0 0.00 0.00 0.00 68 1012.0
20260502025940 51 0 0.0 0.0 0.00 0.00 0.00 65 1012.3
20260502024941 51 0 0.0 0.0 0.00 0.00 0.00 64 1012.0
20260502023940 51 0 0.0 0.0 0.00 0.00 0.00 63 1012.0
20260502022940 51 0 0.0 0.0 0.00 0.00 0.00 63 1012.0
20260502021939 51 0 0.0 0.0 0.00 0.00 0.00 62 1012.0
20260502020940 51 0 0.0 0.0 0.00 0.00 0.00 62 1012.0
20260502015939 52 0 0.0 0.0 0.00 0.00 0.00 60 1012.0
20260502014939 52 0 0.0 0.0 0.00 0.00 0.00 60 1012.0
20260502013940 52 0 0.0 0.0 0.00 0.00 0.00 59 1012.0
20260502012940 52 0 0.0 0.0 0.00 0.00 0.00 58 1011.6
20260502011939 52 0 0.0 0.0 0.00 0.00 0.00 57 1012.0
20260502010939 53 0 0.0 0.0 0.00 0.00 0.00 56 1011.6
20260502005940 53 0 0.0 0.0 0.00 0.00 0.00 55 1011.6
20260502004938 54 0 0.0 0.0 0.00 0.00 0.00 53 1011.6
20260502003940 55 0 0.0 0.0 0.00 0.00 0.00 51 1011.6
20260502002938 55 0 0.0 0.0 0.00 0.00 0.00 50 1011.6
20260502001939 56 0 0.0 0.0 0.00 0.00 0.00 49 1011.3
20260502000938 56 0 0.0 0.0 0.00 0.00 0.00 48 1011.3
20260501235938 57 0 0.0 0.0 0.00 0.00 0.00 47 1011.3
20260501234938 58 0 0.0 0.0 0.00 0.00 0.00 46 1011.0
20260501233937 58 0 0.0 0.0 0.00 0.00 0.00 45 1011.0
20260501232937 59 0 0.0 0.0 0.00 0.00 0.00 45 1011.0
20260501231938 59 0 0.0 0.0 0.00 0.00 0.00 44 1011.0
20260501230937 60 0 0.0 0.0 0.00 0.00 0.00 43 1011.0
20260501225937 60 0 0.0 0.0 0.00 0.00 0.00 41 1010.6
20260501224937 61 0 0.0 0.0 0.00 0.00 0.00 40 1010.6
20260501223937 61 0 0.0 0.0 0.00 0.00 0.00 39 1010.3
20260501222937 62 0 0.0 0.0 0.00 0.00 0.00 39 1010.3
20260501221936 62 0 0.0 0.0 0.00 0.00 0.00 38 1010.3
20260501220936 62 0 0.0 0.0 0.00 0.00 0.00 37 1010.3
20260501215937 63 0 0.0 0.0 0.00 0.00 0.00 36 1010.3
20260501214936 63 0 0.0 0.0 0.00 0.00 0.00 37 1010.0
20260501213936 63 0 0.0 0.0 0.00 0.00 0.00 36 1010.0
20260501212936 63 0 0.0 0.0 0.00 0.00 0.00 36 1010.0
20260501211936 63 0 0.0 0.0 0.00 0.00 0.00 36 1009.6
20260501210935 64 0 0.0 0.0 0.00 0.00 0.00 34 1009.6
20260501205935 64 0 0.0 0.0 0.00 0.00 0.00 34 1009.6
20260501204935 64 0 0.0 0.0 0.00 0.00 0.00 34 1009.6
20260501203935 64 0 0.0 0.0 0.00 0.00 0.00 34 1009.6
20260501202935 64 0 0.0 0.0 0.00 0.00 0.00 34 1009.6
20260501201935 65 0 0.0 0.0 0.00 0.00 0.00 33 1009.6
20260501200935 66 0 0.0 0.0 0.00 0.00 0.00 34 1009.6
20260501195935 65 0 0.0 0.0 0.00 0.00 0.00 34 1009.6
20260501194934 64 0 0.0 0.0 0.00 0.00 0.00 34 1009.6
20260501193935 64 0 0.0 0.0 0.00 0.00 0.00 31 1009.6
20260501192934 64 0 0.0 0.0 0.00 0.00 0.00 34 1010.0
20260501191934 63 0 0.0 0.0 0.00 0.00 0.00 34 1010.0
20260501190935 62 0 0.0 0.0 0.00 0.00 0.00 31 1010.0
20260501185934 64 0 0.0 0.0 0.00 0.00 0.00 34 1010.0
20260501184933 63 0 0.0 0.0 0.00 0.00 0.00 33 1010.3
20260501183934 64 0 0.0 0.0 0.00 0.00 0.00 30 1010.3
20260501182933 63 0 0.0 0.0 0.00 0.00 0.00 34 1010.3
20260501181933 63 0 0.0 0.0 0.00 0.00 0.00 34 1010.3
20260501180933 63 0 0.0 0.0 0.00 0.00 0.00 34 1010.6
20260501175933 63 0 0.0 0.0 0.00 0.00 0.00 33 1011.0
20260501174933 63 0 0.0 0.0 0.00 0.00 0.00 34 1011.0
20260501173933 63 0 0.0 0.0 0.00 0.00 0.00 33 1011.0
20260501172932 62 0 0.0 0.0 0.00 0.00 0.00 36 1011.0
20260501171933 63 0 0.0 0.0 0.00 0.00 0.00 37 1011.0
20260501170933 62 0 0.0 0.0 0.00 0.00 0.00 36 1011.3
20260501165932 62 0 0.0 0.0 0.00 0.00 0.00 33 1011.3
20260501164932 61 0 0.0 0.0 0.00 0.00 0.00 39 1011.6
20260501163932 61 0 0.0 0.0 0.00 0.00 0.00 38 1011.6
20260501162932 61 0 0.0 0.0 0.00 0.00 0.00 37 1011.6
20260501161931 62 0 0.0 0.0 0.00 0.00 0.00 39 1011.6
20260501160931 61 0 0.0 0.0 0.00 0.00 0.00 38 1012.0
20260501155931 61 0 0.0 0.0 0.00 0.00 0.00 43 1012.0
20260501154931 61 0 0.0 0.0 0.00 0.00 0.00 39 1012.0
20260501153931 60 0 0.0 0.0 0.00 0.00 0.00 42 1012.0
20260501152932 59 0 0.0 0.0 0.00 0.00 0.00 42 1012.3
20260501151932 58 0 0.0 0.0 0.00 0.00 0.00 45 1012.3
20260501150930 58 0 0.0 0.0 0.00 0.00 0.00 44 1012.3
20260501145930 58 0 0.0 0.0 0.00 0.00 0.00 46 1012.7
20260501144930 57 0 0.0 0.0 0.00 0.00 0.00 46 1012.7
20260501143930 56 0 0.0 0.0 0.00 0.00 0.00 47 1012.7
20260501142930 56 0 0.0 0.0 0.00 0.00 0.00 49 1012.7
20260501141930 56 0 0.0 0.0 0.00 0.00 0.00 48 1012.7
20260501140930 56 0 0.0 0.0 0.00 0.00 0.00 50 1012.7
20260501135930 54 0 0.0 0.0 0.00 0.00 0.00 47 1012.7